Audubon, IA

3:24 PM CST on February 11, 2016 (GMT -0600)
Audubon County

Weather History for KADU - October, 2011

Change the Weather History Date:

Sunday, October 16, 2011

  Actual Average Record
Temperature  
Mean Temperature 52 °F -  
Max Temperature 62 °F 65 °F 85 °F (1953)
Min Temperature 39 °F 38 °F 23 °F (2002)
Degree Days  
Heating Degree Days 14    
Growing Degree Days 2 (Base 50)    
Moisture  
Dew Point 34 °F    
Average Humidity 55    
Maximum Humidity 81    
Minimum Humidity 25    
Precipitation  
Precipitation 0.00 in - - ()
Sea Level Pressure  
Sea Level Pressure 29.95 in    
Wind  
Wind Speed 6 mph (NNW)    
Max Wind Speed 16 mph    
Max Gust Speed 24 mph    
Visibility 10 miles    
Events      
Averages and records for this station are not official NWS values.
T = Trace of Precipitation, MM = Missing Value Source: NWS Daily Summary

Daily Weather History Graph

Daily Weather History Graph

Search for Another Location

Airport or City:

Trip Planner

Search our weather history database for the weather conditions in past years. The results will help you decide how hot, cold, wet, or windy it might be!

Date:

Astronomy

Oct. 16, 2011 Rise Set
Actual Time 7:32 AM CDT 6:37 PM CDT
Civil Twilight 7:04 AM CDT 7:05 PM CDT
Nautical Twilight 6:32 AM CDT 7:37 PM CDT
Astronomical Twilight 6:00 AM CDT 8:09 PM CDT
Moon 9:20 PM CDT (10/16) 11:54 AM CDT (10/16)
Length of Visible Light 12h 00m
Length of Day
11h 04m
Waning Gibbous, 82% of the Moon is Illuminated
Oct 16
Waning Gibbous
Oct 19
Last Quarter
Oct 26
New
Nov 2
First Quarter
Nov 10
Full

Hourly Weather History & Observations

Time (CDT) Temp. Windchill Dew Point Humidity Pressure Visibility Wind Dir Wind Speed Gust Speed Precip Events Conditions
12:15 AM 42.8 °F - 35.6 °F 76% 29.74 in 10.0 mi Calm Calm - N/A   Clear
12:35 AM 42.8 °F - 37.4 °F 81% 29.74 in 10.0 mi Calm Calm - N/A   Clear
12:55 AM 44.6 °F - 37.4 °F 76% 29.74 in 10.0 mi Calm Calm - N/A   Clear
1:15 AM 51.8 °F - 44.6 °F 76% 29.78 in 10.0 mi Calm Calm - N/A   Clear
1:35 AM 55.4 °F - 46.4 °F 72% 29.79 in 10.0 mi NNW 4.6 mph - N/A   Scattered Clouds
1:55 AM 53.6 °F - 44.6 °F 72% 29.79 in 10.0 mi NNW 5.8 mph - N/A   Clear
2:15 AM 53.6 °F - 42.8 °F 67% 29.78 in 10.0 mi Calm Calm - N/A   Scattered Clouds
2:35 AM 51.8 °F - 41.0 °F 67% 29.78 in 10.0 mi Calm Calm - N/A   Scattered Clouds
2:55 AM 51.8 °F - 39.2 °F 62% 29.80 in 10.0 mi Calm Calm - N/A   Clear
3:15 AM 50.0 °F - 39.2 °F 66% 29.78 in 10.0 mi Calm Calm - N/A   Clear
3:55 AM 48.2 °F - 37.4 °F 66% 29.83 in 10.0 mi North 12.7 mph 18.4 mph N/A   Clear
4:15 AM 46.4 °F 41.9 °F 37.4 °F 71% 29.83 in 10.0 mi North 9.2 mph - N/A   Clear
4:35 AM 46.4 °F 44.3 °F 37.4 °F 71% 29.83 in 10.0 mi North 4.6 mph - N/A   Clear
4:55 AM 46.4 °F 42.9 °F 37.4 °F 71% 29.85 in 10.0 mi North 6.9 mph - N/A   Clear
5:15 AM 46.4 °F 40.7 °F 39.2 °F 76% 29.87 in 10.0 mi North 12.7 mph - N/A   Clear
5:35 AM 48.2 °F - 39.2 °F 71% 29.89 in 10.0 mi North 12.7 mph 21.9 mph N/A   Clear
5:55 AM 46.4 °F 39.8 °F 39.2 °F 76% 29.91 in 10.0 mi North 16.1 mph 23.0 mph N/A   Clear
6:15 AM 46.4 °F 40.7 °F 39.2 °F 76% 29.92 in 10.0 mi North 12.7 mph 19.6 mph N/A   Clear
6:35 AM 46.4 °F 41.9 °F 39.2 °F 76% 29.92 in 10.0 mi NNE 9.2 mph - N/A   Clear
6:55 AM 46.4 °F 41.9 °F 39.2 °F 76% 29.93 in 10.0 mi North 9.2 mph - N/A   Clear
7:15 AM 46.4 °F 41.5 °F 39.2 °F 76% 29.93 in 10.0 mi North 10.4 mph - N/A   Clear
7:35 AM 46.4 °F 42.4 °F 39.2 °F 76% 29.95 in 10.0 mi North 8.1 mph - N/A   Clear
7:55 AM 46.4 °F 44.3 °F 39.2 °F 76% 29.96 in 10.0 mi NNW 4.6 mph - N/A   Clear
8:15 AM 46.4 °F 44.3 °F 39.2 °F 76% 29.97 in 10.0 mi NNW 4.6 mph - N/A   Clear
8:35 AM 46.4 °F 45.2 °F 41.0 °F 81% 29.99 in 10.0 mi WNW 3.5 mph - N/A   Clear
8:55 AM 46.4 °F 44.3 °F 41.0 °F 81% 30.00 in 10.0 mi NNW 4.6 mph - N/A   Clear
9:15 AM 50.0 °F - 42.8 °F 76% 30.01 in 10.0 mi NW 6.9 mph - N/A   Clear
9:35 AM 50.0 °F - 41.0 °F 71% 30.01 in 10.0 mi NNW 8.1 mph - N/A   Clear
9:55 AM 51.8 °F - 41.0 °F 67% 30.02 in 10.0 mi NNW 9.2 mph - N/A   Clear
10:15 AM 51.8 °F - 41.0 °F 67% 30.03 in 10.0 mi North 13.8 mph - N/A   Clear
10:35 AM 53.6 °F - 41.0 °F 62% 30.04 in 10.0 mi NW 10.4 mph 16.1 mph N/A   Clear
10:55 AM 55.4 °F - 39.2 °F 54% 30.04 in 10.0 mi NNW 11.5 mph 16.1 mph N/A   Clear
11:15 AM 53.6 °F - 39.2 °F 58% 30.04 in 10.0 mi NW 9.2 mph - N/A   Clear
11:35 AM 55.4 °F - 37.4 °F 51% 30.04 in 10.0 mi NW 12.7 mph 18.4 mph N/A   Clear
11:55 AM 55.4 °F - 37.4 °F 51% 30.04 in 10.0 mi NW 11.5 mph 16.1 mph N/A   Clear
12:35 PM 60.8 °F - 35.6 °F 39% 30.04 in 10.0 mi NW 10.4 mph - N/A   Clear
12:55 PM 59.0 °F - 35.6 °F 42% 30.04 in 10.0 mi NW 10.4 mph 17.3 mph N/A   Clear
1:15 PM 60.8 °F - 30.2 °F 31% 30.03 in 10.0 mi NNW 9.2 mph 20.7 mph N/A   Clear
1:35 PM 60.8 °F - 28.4 °F 29% 30.02 in 10.0 mi NNW 9.2 mph 21.9 mph N/A   Clear
1:55 PM 60.8 °F - 26.6 °F 27% 30.02 in 10.0 mi NNW 10.4 mph 24.2 mph N/A   Clear
2:15 PM 60.8 °F - 28.4 °F 29% 30.02 in 10.0 mi NNW 13.8 mph 20.7 mph N/A   Clear
2:35 PM 60.8 °F - 30.2 °F 31% 30.02 in 10.0 mi NW 11.5 mph 18.4 mph N/A   Clear
2:55 PM 60.8 °F - 30.2 °F 31% 30.01 in 10.0 mi NW 13.8 mph 20.7 mph N/A   Clear
3:15 PM 60.8 °F - 28.4 °F 29% 30.00 in 10.0 mi NW 10.4 mph 18.4 mph N/A   Clear
3:35 PM 62.6 °F - 28.4 °F 27% 30.00 in 10.0 mi NW 10.4 mph 20.7 mph N/A   Clear
3:55 PM 62.6 °F - 28.4 °F 27% 30.00 in 10.0 mi NW 9.2 mph 18.4 mph N/A   Clear
4:15 PM 60.8 °F - 28.4 °F 29% 30.00 in 10.0 mi NNW 13.8 mph 21.9 mph N/A   Clear
4:35 PM 60.8 °F - 28.4 °F 29% 30.00 in 10.0 mi WNW 6.9 mph 18.4 mph N/A   Clear
4:55 PM 60.8 °F - 26.6 °F 27% 30.00 in 10.0 mi NNW 12.7 mph 19.6 mph N/A   Clear
5:15 PM 60.8 °F - 24.8 °F 25% 30.00 in 10.0 mi NNW 12.7 mph 19.6 mph N/A   Clear
5:35 PM 59.0 °F - 24.8 °F 27% 30.00 in 10.0 mi NW 11.5 mph 19.6 mph N/A   Clear
5:55 PM 57.2 °F - 24.8 °F 29% 30.00 in 10.0 mi NW 4.6 mph - N/A   Clear
6:15 PM 57.2 °F - 24.8 °F 29% 30.01 in 10.0 mi WNW 6.9 mph - N/A   Clear
6:35 PM 55.4 °F - 24.8 °F 31% 30.02 in 10.0 mi NW 3.5 mph - N/A   Clear
6:55 PM 53.6 °F - 24.8 °F 33% 30.01 in 10.0 mi NW 3.5 mph - N/A   Clear
7:15 PM 51.8 °F - 24.8 °F 35% 30.02 in 10.0 mi WNW 4.6 mph - N/A   Clear
7:35 PM 51.8 °F - 26.6 °F 38% 30.03 in 10.0 mi WNW 3.5 mph - N/A   Clear
7:55 PM 46.4 °F 45.2 °F 26.6 °F 46% 30.03 in 10.0 mi NNW 3.5 mph - N/A   Clear
8:15 PM 46.4 °F - 28.4 °F 50% 30.03 in 10.0 mi Calm Calm - N/A   Clear
8:35 PM 42.8 °F - 26.6 °F 53% 30.03 in 10.0 mi Calm Calm - N/A   Clear
8:55 PM 42.8 °F - 28.4 °F 57% 30.03 in 10.0 mi Calm Calm - N/A   Clear
9:15 PM 41.0 °F - 28.4 °F 61% 30.03 in 10.0 mi Calm Calm - N/A   Clear
9:35 PM 39.2 °F - 28.4 °F 65% 30.03 in 10.0 mi Calm Calm - N/A   Clear
9:55 PM 37.4 °F - 28.4 °F 70% 30.03 in 10.0 mi Calm Calm - N/A   Clear
10:35 PM 37.4 °F - 30.2 °F 75% 30.04 in 10.0 mi Calm Calm - N/A   Clear
10:55 PM 35.6 °F - 28.4 °F 75% 30.04 in 10.0 mi Calm Calm - N/A   Clear
11:15 PM 35.6 °F - 28.4 °F 75% 30.04 in 10.0 mi Calm Calm - N/A   Clear
11:35 PM 35.6 °F - 28.4 °F 75% 30.04 in 10.0 mi Calm Calm - N/A   Clear
11:55 PM 35.6 °F - 28.4 °F 75% 30.04 in 10.0 mi Calm Calm - N/A   Clear